Content
SEND FEEDBACK

Daily
Averages
Monthly
Summary
United States of America

BOWLING GREEN, MISSOURI


Home > North America > United States > Missouri
Elevation: 900 feet     Latitude: 39 21N     Longitude: 091 12W

WEATHER
 
SELECT A DAY
Number of Records: 318,330;   Date Range: 7/17/01 - 7/7/14
 
SHARE

PRINT THIS DATA

[ ← Previous Day ]
WEATHER ALMANAC - JANUARY 6, 2013
[ Next Day → ]
[ °C ]   °F
Weather ElementAverageHighLow
Temperature30.3 °F38.7 °F (12:35 am)23 °F (10:35 pm)
Dewpoint22.9 °F32 °F (12:35 am)19.6 °F (10:35 pm)
Humidity74.5 %89 % (10:55 pm)62 % (3:55 pm)
Barometer30.25 in30.36 in (6:15 pm)30.05 in (12:35 am)
Wind Speed8.1 mph15 mph (7:35 am)
Wind Gust24.2 mph (5:55 am)
Weather ElementAverage
Visibility9.7 mi
Wind DirectionWSW (245.6 °)

Weather ElementTotal
Precipitation---
Heating Degree Days34.2 (Base 65)
Averaged from 71 records on January 6, 2013
WEATHER CONDITIONS BREAKOUT
WIND DIRECTION BREAKOUT
WEATHER BY HOUR - JANUARY 6, 2013
[ °C ]   °F
Local TimeTemperatureDewpointHumidityBarometerVisibilityWind DirectionWind SpeedGust SpeedPrecipitationEventsConditions
12:35 AM38.7 °F32.0 °F77 %30.05 in10.0 miWSW (250°)13.8 mphOvercast
12:55 AM38.1 °F32.0 °F79 %30.06 in10.0 miWest (260°)9.2 mphOvercast
1:15 AM37.6 °F31.3 °F78 %30.06 in10.0 miWSW (250°)11.5 mphOvercast
1:35 AM36.9 °F30.7 °F79 %30.07 in10.0 miWest (270°)9.2 mph19.6 mphOvercast
1:55 AM35.6 °F28.8 °F76 %30.08 in10.0 miWest (280°)11.5 mph21.9 mphOvercast
2:15 AM34.3 °F27.3 °F76 %30.09 in10.0 miWNW (290°)10.4 mph19.6 mphMostly Cloudy
2:35 AM34.0 °F26.4 °F74 %30.09 in10.0 miWest (280°)8.1 mphMostly Cloudy
2:55 AM33.8 °F26.2 °F74 %30.09 in10.0 miWest (270°)5.8 mphOvercast
3:15 AM33.8 °F26.2 °F74 %30.09 in10.0 miWest (260°)8.1 mphOvercast
3:35 AM33.3 °F26.4 °F76 %30.09 in10.0 miWest (260°)8.1 mphOvercast
3:55 AM33.3 °F26.2 °F75 %30.09 in10.0 miWest (270°)9.2 mphOvercast
4:15 AM33.1 °F26.4 °F77 %30.09 in10.0 miWest (280°)9.2 mphOvercast
4:35 AM32.9 °F26.6 °F78 %30.10 in10.0 miWest (270°)10.4 mph16.1 mphOvercast
4:55 AM32.9 °F26.4 °F77 %30.11 in10.0 miWest (280°)11.5 mphOvercast
5:15 AM32.2 °F25.3 °F76 %30.12 in10.0 miWNW (300°)12.7 mph19.6 mphOvercast
5:35 AM32.0 °F24.8 °F75 %30.13 in10.0 miWNW (300°)13.8 mphOvercast
5:55 AM31.5 °F24.4 °F75 %30.14 in10.0 miWNW (300°)13.8 mph24.2 mphOvercast
6:15 AM31.3 °F23.9 °F74 %30.15 in10.0 miWest (280°)13.8 mph20.7 mphOvercast
6:35 AM30.7 °F23.0 °F73 %30.16 in10.0 miWNW (300°)11.5 mph24.2 mphOvercast
6:55 AM30.6 °F23.4 °F75 %30.17 in10.0 miWNW (300°)8.1 mphOvercast
7:15 AM30.2 °F23.0 °F75 %30.18 in10.0 miWNW (300°)12.7 mph21.9 mphOvercast
7:35 AM30.0 °F23.5 °F77 %30.19 in7.0 miNW (310°)15.0 mph20.7 mphOvercast
7:55 AM29.3 °F23.0 °F77 %30.20 in7.0 miWNW (300°)12.7 mph18.4 mphOvercast
8:15 AM28.4 °F23.0 °F80 %30.21 in7.0 miWNW (290°)9.2 mph20.7 mphOvercast
8:35 AM28.4 °F21.7 °F76 %30.22 in7.0 miWest (280°)12.7 mph21.9 mphOvercast
8:55 AM27.9 °F20.8 °F75 %30.23 in7.0 miWNW (290°)11.5 mph20.7 mphScattered Clouds
9:15 AM28.0 °F20.3 °F73 %30.25 in10.0 miWNW (290°)12.7 mph20.7 mphClear
9:35 AM28.0 °F20.7 °F74 %30.26 in7.0 miWNW (290°)15.0 mph23.0 mphClear
9:55 AM28.6 °F21.4 °F74 %30.27 in7.0 miWNW (300°)11.5 mph20.7 mphClear
10:15 AM29.1 °F21.7 °F74 %30.28 in10.0 miWest (280°)13.8 mph23.0 mphScattered Clouds
10:35 AM28.8 °F21.4 °F74 %30.28 in10.0 miWNW (290°)12.7 mph21.9 mphMostly Cloudy
10:55 AM29.1 °F21.4 °F73 %30.28 in10.0 miWNW (290°)10.4 mphScattered Clouds
11:15 AM30.2 °F21.2 °F69 %30.28 in10.0 miWNW (290°)10.4 mphClear
11:35 AM29.8 °F21.7 °F72 %30.27 in10.0 miWest (280°)12.7 mph17.3 mphClear
11:55 AM30.4 °F22.3 °F72 %30.27 in10.0 miWest (270°)10.4 mphScattered Clouds
12:15 PM30.7 °F21.9 °F70 %30.28 in10.0 miWNW (300°)10.4 mph17.3 mphClear
12:35 PM30.6 °F21.6 °F69 %30.28 in10.0 miWNW (290°)10.4 mphClear
12:55 PM31.1 °F22.1 °F69 %30.28 in10.0 miWNW (290°)11.5 mphClear
1:15 PM31.3 °F22.3 °F69 %30.28 in10.0 miWest (270°)11.5 mphClear
1:35 PM31.8 °F22.8 °F69 %30.28 in10.0 miWest (280°)11.5 mphClear
1:55 PM32.0 °F22.1 °F67 %30.29 in10.0 miWest (280°)9.2 mph19.6 mphClear
2:15 PM32.0 °F21.4 °F65 %30.30 in10.0 miWNW (290°)6.9 mphClear
2:35 PM32.2 °F20.7 °F63 %30.30 in10.0 miWNW (290°)11.5 mphClear
2:55 PM32.4 °F21.6 °F64 %30.30 in10.0 miWest (280°)5.8 mphClear
3:15 PM32.4 °F20.8 °F63 %30.31 in10.0 miWNW (290°)8.1 mphClear
3:35 PM32.4 °F20.8 °F63 %30.32 in10.0 miWest (280°)5.8 mphClear
3:55 PM32.4 °F20.7 °F62 %30.33 in10.0 miWest (280°)6.9 mphClear
4:15 PM32.2 °F20.7 °F63 %30.33 in10.0 miWest (280°)5.8 mphClear
4:35 PM32.0 °F20.8 °F63 %30.33 in10.0 miWest (280°)5.8 mphClear
4:55 PM31.3 °F21.7 °F68 %30.33 in10.0 miWSW (250°)4.6 mphClear
5:15 PM30.6 °F21.2 °F68 %30.34 in10.0 miWSW (250°)3.5 mphClear
5:35 PM30.2 °F21.0 °F69 %30.35 in10.0 miCalmClear
5:55 PM30.0 °F21.4 °F70 %30.35 in10.0 miCalmClear
6:15 PM29.3 °F21.6 °F73 %30.36 in10.0 miCalmClear
6:35 PM28.0 °F22.3 °F79 %30.36 in10.0 miSSW (210°)3.5 mphClear
6:55 PM27.1 °F21.7 °F80 %30.36 in10.0 miSW (220°)4.6 mphClear
7:15 PM27.5 °F21.2 °F77 %30.36 in10.0 miSW (220°)4.6 mphClear
7:35 PM27.5 °F21.6 °F78 %30.36 in10.0 miSW (230°)4.6 mphClear
7:55 PM27.1 °F21.0 °F78 %30.36 in10.0 miSW (230°)4.6 mphClear
8:15 PM27.7 °F21.2 °F77 %30.36 in10.0 miSW (220°)4.6 mphClear
8:35 PM26.8 °F20.3 °F77 %30.36 in10.0 miSW (230°)3.5 mphClear
8:55 PM26.6 °F21.4 °F81 %30.35 in10.0 miSSW (210°)3.5 mphClear
9:15 PM26.1 °F20.3 °F79 %30.36 in10.0 miSW (230°)3.5 mphClear
9:35 PM26.6 °F21.0 °F79 %30.36 in10.0 miCalmClear
9:55 PM24.8 °F21.2 °F86 %30.35 in10.0 miCalmClear
10:15 PM24.8 °F21.2 °F86 %30.36 in10.0 miSW (230°)3.5 mphClear
10:35 PM23.0 °F19.6 °F87 %30.36 in10.0 miSSW (210°)3.5 mphClear
10:55 PM23.4 °F20.7 °F89 %30.36 in10.0 miSW (220°)4.6 mphClear
11:15 PM24.8 °F21.2 °F86 %30.36 in10.0 miSSW (210°)3.5 mphClear
11:35 PM24.3 °F20.3 °F85 %30.36 in10.0 miCalmClear
11:55 PM23.4 °F20.3 °F88 %30.36 in10.0 miSouth (190°)3.5 mphClear
Hourly data recorded from KPPQ, located miles away from Bowling Green, Missouri







STORIES FROM OUR PARTNERS